TimeEDT,TemperatureF,Dew PointF,Humidity,Sea Level PressureIn,VisibilityMPH,Wind Direction,Wind SpeedMPH,Gust SpeedMPH,PrecipitationIn,Events,Conditions,WindDirDegrees,DateUTC
12:00 AM,17.6,-9999,N/A,30.19,6.0,WNW,5.8,-,N/A,,Scattered Clouds,290,2013-05-26 04:00:00
12:02 AM,17.6,-9999,N/A,30.04,6.0,North,-9999.0,-,N/A,,Mostly Cloudy,0,2013-05-26 04:02:00
12:09 AM,17.6,-9999,N/A,30.04,1.8,West,8.1,-,N/A,,Overcast,280,2013-05-26 04:09:00
12:10 AM,17.6,-9999,N/A,30.04,0.8,West,8.1,-,N/A,,Overcast,280,2013-05-26 04:10:00
12:11 AM,17.6,-9999,N/A,30.04,0.5,West,8.1,-,N/A,,Overcast,280,2013-05-26 04:11:00
12:12 AM,17.6,-9999,N/A,30.04,0.4,West,8.1,-,N/A,,Overcast,280,2013-05-26 04:12:00
12:25 AM,15.8,-9999,N/A,30.04,0.4,West,9.2,-,N/A,,Overcast,270,2013-05-26 04:25:00
12:28 AM,15.8,-9999,N/A,30.04,0.1,West,9.2,-,N/A,,Overcast,280,2013-05-26 04:28:00
12:31 AM,15.8,-9999,N/A,30.04,0.1,West,6.9,-,N/A,,Overcast,280,2013-05-26 04:31:00
12:41 AM,15.8,-9999,N/A,30.04,0.1,West,6.9,-,N/A,,Clear,280,2013-05-26 04:41:00
12:59 AM,15.8,-9999,N/A,30.04,0.0,West,6.9,-,N/A,,Clear,270,2013-05-26 04:59:00
1:00 AM,15.8,-9999,N/A,30.19,0.0,West,6.9,-,N/A,,Clear,270,2013-05-26 05:00:00
1:44 AM,14.0,-9999,N/A,30.04,0.0,West,6.9,-,N/A,,Clear,280,2013-05-26 05:44:00
1:47 AM,12.2,-9999,N/A,30.04,0.0,West,6.9,-,N/A,,Clear,280,2013-05-26 05:47:00
2:00 AM,11,,,30.20,0,West,6.9,,,,,280,2013-05-26 06:00:00
2:00 AM,10.4,-9999,N/A,30.20,0.0,West,6.9,-,N/A,,Clear,270,2013-05-26 06:00:00
2:03 AM,12.2,-9999,N/A,30.04,0.0,West,8.1,-,N/A,,Clear,270,2013-05-26 06:03:00
2:18 AM,10.4,-9999,N/A,30.05,0.0,West,8.1,-,N/A,,Clear,270,2013-05-26 06:18:00
2:32 AM,10.4,-9999,N/A,30.05,0.0,West,9.2,-,N/A,,Clear,280,2013-05-26 06:32:00
2:35 AM,10.4,-9999,N/A,30.06,0.0,WNW,6.9,-,N/A,,Clear,290,2013-05-26 06:35:00
3:00 AM,10.4,-9999,N/A,30.22,0.0,West,6.9,-,N/A,,Clear,260,2013-05-26 07:00:00
4:00 AM,10.4,-9999,N/A,30.22,0.0,WNW,10.4,-,N/A,,Clear,300,2013-05-26 08:00:00
4:34 AM,12.2,-9999,N/A,30.07,0.0,West,11.5,-,N/A,,Clear,280,2013-05-26 08:34:00
4:57 AM,12.2,-9999,N/A,30.07,0.0,West,11.5,-,N/A,,Clear,270,2013-05-26 08:57:00
5:00 AM,12,,,30.23,0,West,12.7,,,,,270,2013-05-26 09:00:00
5:00 AM,12.2,-9999,N/A,30.23,0.0,West,11.5,-,N/A,,Clear,270,2013-05-26 09:00:00
6:00 AM,14.0,-9999,N/A,30.23,0.0,WNW,11.5,-,N/A,,Clear,300,2013-05-26 10:00:00
7:00 AM,15.8,-9999,N/A,30.25,0.0,West,10.4,-,N/A,,Clear,280,2013-05-26 11:00:00
8:00 AM,16,,,30.27,0,West,11.5,,,,,260,2013-05-26 12:00:00
8:00 AM,15.8,-9999,N/A,30.27,0.1,West,12.7,-,N/A,,Clear,260,2013-05-26 12:00:00
8:46 AM,15.8,-9999,N/A,30.12,0.5,West,13.8,-,N/A,,Clear,270,2013-05-26 12:46:00
8:50 AM,15.8,-9999,N/A,30.13,0.4,West,11.5,-,N/A,,Clear,270,2013-05-26 12:50:00
8:56 AM,15.8,-9999,N/A,30.12,0.1,West,11.5,-,N/A,,Clear,270,2013-05-26 12:56:00
9:00 AM,15.8,-9999,N/A,30.28,0.1,West,12.7,-,N/A,,Clear,280,2013-05-26 13:00:00
10:00 AM,15.8,-9999,N/A,30.29,0.1,West,11.5,-,N/A,,Clear,260,2013-05-26 14:00:00
11:00 AM,17,,,30.31,0,West,9.2,,,,,270,2013-05-26 15:00:00
11:00 AM,17.6,-9999,N/A,30.31,0.1,West,9.2,-,N/A,,Clear,270,2013-05-26 15:00:00
12:00 PM,17.6,-9999,N/A,30.30,0.1,West,10.4,-,N/A,,Clear,270,2013-05-26 16:00:00
1:00 PM,17.6,-9999,N/A,30.31,0.1,West,10.4,-,N/A,,Clear,270,2013-05-26 17:00:00
2:00 PM,19,,,30.32,0,West,12.7,,,,,270,2013-05-26 18:00:00
2:00 PM,19.4,-9999,N/A,30.32,0.1,West,12.7,-,N/A,,Clear,270,2013-05-26 18:00:00
3:00 PM,19.4,-9999,N/A,30.33,0.1,West,11.5,-,N/A,,Clear,270,2013-05-26 19:00:00
3:27 PM,19.4,-9999,N/A,30.17,0.6,West,10.4,-,N/A,,Clear,270,2013-05-26 19:27:00
3:29 PM,19.4,-9999,N/A,30.17,1.4,West,10.4,-,N/A,,Clear,270,2013-05-26 19:29:00
3:31 PM,17.6,-9999,N/A,30.17,3.0,West,10.4,-,N/A,,Clear,280,2013-05-26 19:31:00
3:35 PM,19.4,-9999,N/A,30.17,1.5,West,10.4,-,N/A,,Clear,260,2013-05-26 19:35:00
3:36 PM,19.4,-9999,N/A,30.17,0.8,West,10.4,-,N/A,,Clear,260,2013-05-26 19:36:00
3:37 PM,19.4,-9999,N/A,30.17,0.6,West,10.4,-,N/A,,Clear,270,2013-05-26 19:37:00
3:42 PM,19.4,-9999,N/A,30.17,0.2,West,10.4,-,N/A,,Overcast,260,2013-05-26 19:42:00
3:44 PM,19.4,-9999,N/A,30.17,0.1,West,11.5,-,N/A,,Clear,260,2013-05-26 19:44:00
3:59 PM,19.4,-9999,N/A,30.18,0.2,West,10.4,-,N/A,,Clear,270,2013-05-26 19:59:00
4:00 PM,19.4,-9999,N/A,30.34,0.2,West,10.4,-,N/A,,Clear,270,2013-05-26 20:00:00
4:19 PM,19.4,-9999,N/A,30.17,1.0,West,8.1,-,N/A,,Clear,270,2013-05-26 20:19:00
4:21 PM,19.4,-9999,N/A,30.17,1.5,West,9.2,-,N/A,,Clear,280,2013-05-26 20:21:00
4:26 PM,17.6,-9999,N/A,30.18,1.0,West,10.4,-,N/A,,Clear,270,2013-05-26 20:26:00
4:27 PM,19.4,-9999,N/A,30.18,0.8,West,11.5,-,N/A,,Clear,270,2013-05-26 20:27:00
4:28 PM,19.4,-9999,N/A,30.18,0.6,West,11.5,-,N/A,,Clear,270,2013-05-26 20:28:00
4:30 PM,19.4,-9999,N/A,30.18,0.4,West,10.4,-,N/A,,Overcast,270,2013-05-26 20:30:00
4:33 PM,19.4,-9999,N/A,30.18,0.1,West,10.4,-,N/A,,Clear,270,2013-05-26 20:33:00
4:54 PM,17.6,-9999,N/A,30.18,0.5,West,10.4,-,N/A,,Clear,280,2013-05-26 20:54:00
4:57 PM,17.6,-9999,N/A,30.18,1.8,West,10.4,-,N/A,,Clear,280,2013-05-26 20:57:00
4:59 PM,17.6,-9999,N/A,30.18,3.0,West,9.2,-,N/A,,Clear,280,2013-05-26 20:59:00
5:00 PM,18,,,30.35,2,West,10.4,,,,,280,2013-05-26 21:00:00
5:00 PM,17.6,-9999,N/A,30.35,2.5,West,10.4,-,N/A,,Clear,280,2013-05-26 21:00:00
5:07 PM,17.6,-9999,N/A,30.18,0.4,West,10.4,-,N/A,,Clear,280,2013-05-26 21:07:00
5:24 PM,17.6,-9999,N/A,30.19,1.0,West,9.2,-,N/A,,Clear,260,2013-05-26 21:24:00
5:26 PM,17.6,-9999,N/A,30.19,1.5,WSW,9.2,-,N/A,,Clear,250,2013-05-26 21:26:00
5:41 PM,17.6,-9999,N/A,30.19,5.0,WSW,8.1,-,N/A,,Clear,250,2013-05-26 21:41:00
5:56 PM,17.6,-9999,N/A,30.19,1.8,WSW,9.2,-,N/A,,Clear,250,2013-05-26 21:56:00
5:57 PM,17.6,-9999,N/A,30.19,1.0,WSW,8.1,-,N/A,,Clear,250,2013-05-26 21:57:00
5:58 PM,17.6,-9999,N/A,30.19,0.6,WSW,9.2,-,N/A,,Clear,250,2013-05-26 21:58:00
6:00 PM,17.6,-9999,N/A,30.35,0.6,West,9.2,-,N/A,,Clear,260,2013-05-26 22:00:00
6:08 PM,17.6,-9999,N/A,30.19,0.1,WSW,9.2,-,N/A,,Clear,250,2013-05-26 22:08:00
7:00 PM,17.6,-9999,N/A,30.36,0.1,WSW,6.9,-,N/A,,Clear,250,2013-05-26 23:00:00
7:22 PM,17.6,-9999,N/A,30.20,0.5,West,10.4,-,N/A,,Clear,280,2013-05-26 23:22:00
7:26 PM,17.6,-9999,N/A,30.20,1.2,West,10.4,-,N/A,,Clear,280,2013-05-26 23:26:00
7:32 PM,17.6,-9999,N/A,30.20,3.0,WNW,10.4,-,N/A,,Clear,290,2013-05-26 23:32:00
7:44 PM,17.6,-9999,N/A,30.20,2.8,WNW,6.9,-,N/A,,Clear,300,2013-05-26 23:44:00
7:47 PM,17.6,-9999,N/A,30.20,1.2,WNW,6.9,-,N/A,,Clear,300,2013-05-26 23:47:00
7:49 PM,17.6,-9999,N/A,30.20,1.0,WNW,5.8,-,N/A,,Clear,290,2013-05-26 23:49:00
7:50 PM,17.6,-9999,N/A,30.20,0.6,WNW,6.9,-,N/A,,Clear,290,2013-05-26 23:50:00
7:52 PM,17.6,-9999,N/A,30.20,0.4,WNW,6.9,-,N/A,,Clear,300,2013-05-26 23:52:00
8:00 PM,18,,,30.37,0,WNW,8.1,,,,,300,2013-05-27 00:00:00
8:00 PM,17.6,-9999,N/A,30.37,0.4,WNW,5.8,-,N/A,,Clear,300,2013-05-27 00:00:00
8:07 PM,17.6,-9999,N/A,30.20,0.1,WNW,6.9,-,N/A,,Clear,300,2013-05-27 00:07:00
8:30 PM,17.6,-9999,N/A,30.20,0.1,West,4.6,-,N/A,,Clear,270,2013-05-27 00:30:00
9:00 PM,17.6,-9999,N/A,30.36,0.1,WSW,8.1,-,N/A,,Clear,240,2013-05-27 01:00:00
10:00 PM,17.6,-9999,N/A,30.36,0.0,SW,5.8,-,N/A,,Clear,230,2013-05-27 02:00:00
10:36 PM,17.6,-9999,N/A,30.20,0.0,SW,5.8,-,N/A,,Clear,230,2013-05-27 02:36:00
11:00 PM,18,,,30.36,0,WSW,5.8,,,,,240,2013-05-27 03:00:00
11:00 PM,17.6,-9999,N/A,30.36,0.0,WSW,4.6,-,N/A,,Clear,250,2013-05-27 03:00:00
11:03 PM,17.6,-9999,N/A,30.20,0.0,WSW,4.6,-,N/A,,Clear,250,2013-05-27 03:03:00